Overview Statistics Trail Chart Weather Telemetry Raw packets
 

This is the latest recevied weather packets stored in our database for station/object KC9NPJ-13. If no packets are shown the sender has not sent any weather packets the latest 10 day(s).

<< 10 11 12 13 14 15 16 >>
Time Temp. Humidity Pressure Rain* Wind** Luminosity Snow
1788541516 36.11° C 49% 1015.7 hPa 0 mm - - -
1788541216 36.67° C 48% 1015.8 hPa 0 mm - - -
1788540916 36.67° C 49% 1015.7 hPa 0 mm - - -
1788540616 36.67° C 51% 1015.8 hPa 0 mm - - -
1788540316 36.67° C 48% 1016 hPa 0 mm - - -
1788540016 36.67° C 49% 1015.9 hPa 0 mm - - -
1788539716 36.11° C 49% 1015.8 hPa 0 mm - - -
1788539416 36.11° C 52% 1015.9 hPa 0 mm - - -
1788539116 36.11° C 49% 1016 hPa 0 mm - - -
1788538816 35.56° C 51% 1016.1 hPa 0 mm - - -
1788538516 35.56° C 51% 1016 hPa 0 mm - - -
1788538235 35.56° C 53% 1016 hPa 0 mm - - -
1788537916 35° C 55% 1016.2 hPa 0 mm - - -
1788537616 35° C 54% 1016 hPa 0 mm - - -
1788537316 35° C 55% 1016 hPa 0 mm - - -
1788537016 35° C 54% 1016.1 hPa 0 mm - - -
1788536745 34.44° C 57% 1016.1 hPa 0 mm - - -
1788536416 34.44° C 55% 1016.2 hPa 0 mm - - -
1788536116 33.89° C 56% 1016.1 hPa 0 mm - - -
1788535816 33.89° C 56% 1016.1 hPa 0 mm - - -
1788535516 33.89° C 58% 1016.2 hPa 0 mm - - -
1788535222 33.33° C 61% 1016.2 hPa 0 mm - - -
1788534916 33.33° C 60% 1016.1 hPa 0 mm - - -
1788534616 33.33° C 62% 1016.2 hPa 0 mm - - -
1788534316 32.78° C 59% 1016.1 hPa 0 mm - - -

* Rain latest hour (hover to see other rain measurements)
** Current wind speed in m/s (hover to see current wind gust speed)